Regional Weather Roundup
Issued by NWS

Home | Current Version | Previous Version | Text Only | Print | Product List | Glossary On
Versions: 1 2 3 4 5 6 7 8 9 10 11 12 13 14 15 16 17 18 19 20 21 22 23 24 25 26 27 28 29 30 31 32 33 34 35 36 37 38 39 40 41 42 43 44 45 46 47 48 49 50
000
ASUS43 KDTX 301410
RWRMI
MICHIGAN HOURLY REGIONAL WEATHER ROUNDUP
NATIONAL WEATHER SERVICE DETROIT/PONTIAC MI
1000 AM EDT WED JUL 30 2014

NOTE: "FAIR" INDICATES FEW OR NO CLOUDS BELOW 12,000 FEET WITH NO
SIGNIFICANT WEATHER AND/OR OBSTRUCTION TO VISIBILITY.

MIZ047>049-052>055-059>063-066>070-074>076-081>083-301500-
SOUTHEAST LOWER MICHIGAN

CITY           SKY/WX    TMP DP  RH WIND       PRES   REMARKS
ADRIAN         MOSUNNY   65  57  75 N5        30.02S
ALMA           PTSUNNY   62  56  81 CALM      30.02S
ANN ARBOR      PTSUNNY   64  57  78 W6        30.01S
BAD AXE        SUNNY     64  55  75 NW6       30.00S
CARO           SUNNY     66  60  80 NW6       30.00S
DETROIT CITY   PTSUNNY   67  58  72 NW3       30.01R
DETROIT        PTSUNNY   66  59  78 CALM      30.01S
FLINT          LGT RAIN  61  56  83 CALM      30.02S
GROSSE ILE     MOSUNNY   66  59  77 CALM      30.00S
HILLSDALE      PTSUNNY   66  59  80 NW6       30.02S
HOWELL         CLOUDY    60  58  92 CALM      30.02S

CITY           SKY/WX    TMP DP  RH WIND       PRES   REMARKS
JACKSON        MOSUNNY   65  58  78 MISG      30.02S
LAMBERTVILLE   MOSUNNY   66  59  77 CALM      30.02S
LANSING        CLOUDY    62  57  83 CALM      30.02S
LAPEER         CLOUDY    60  58  92 CALM      30.01S
MASON          CLOUDY    60  58  92 CALM      30.02S FOG
MONROE         MOSUNNY   64  59  82 CALM      30.00S
MT. CLEMENS    PTSUNNY   63  58  84 NW5       30.00R
PONTIAC        CLOUDY    61  56  83 VRB3      30.01R
PORT HOPE        N/A     63  55  75 CALM      29.98R
PORT HURON     CLOUDY    61  59  94 NW3       30.00S
TRI CITIES     MOSUNNY   65  57  75 NW3       30.01S
TROY           PTSUNNY   63  59  88 CALM      30.02R
SAGINAW HB     MOSUNNY   64  59  82 CALM      30.00S
$$
MIZ043>046-050>051-056>058-064>065-071>073-077>080-301500-
SOUTHWEST LOWER MICHIGAN

CITY           SKY/WX    TMP DP  RH WIND       PRES   REMARKS
BATTLE CREEK   MOSUNNY   64  57  78 W6        30.03S
BENTON HARBOR  MOSUNNY   65  58  78 VRB5      30.03R
BIG RAPIDS     MOSUNNY   64  55  70 N5        30.01S
COLDWATER      MOSUNNY   65  59  82 W6        30.02S
FREMONT        FAIR      64  58  80 CALM      30.01S
HOLLAND        CLOUDY    64  59  83 W6        30.02S
GRAND RAPIDS   PTSUNNY   64  58  80 CALM      30.02S
IONIA          PTSUNNY   60  57  91 CALM      30.01F
KALAMAZOO      MOSUNNY   65  57  75 W6        30.02S
LUDINGTON      SUNNY     64  57  79 N5        30.03R
MARSHALL       MOSUNNY   63  57  81 W7        30.02S
MOUNT PLEASANT SUNNY     65  53  64 N5        30.01R
MUSKEGON       PTSUNNY   63  57  81 CALM      30.02R
SOUTH HAVEN    MOSUNNY   65  60  85 NW7       30.03R
$$
MIZ016>042-301500-
NORTHERN LOWER MICHIGAN

CITY           SKY/WX    TMP DP  RH WIND       PRES   REMARKS
ALPENA         PTSUNNY   59  55  87 N8        30.00S
BEAVER ISLAND  PTSUNNY   58  55  89 N5        30.02S
BELLAIRE       PTSUNNY   62  56  83 NW3       30.01S
CADILLAC       SUNNY     60  53  78 NW5       30.02S
CHARLEVOIX     PTSUNNY   61  56  84 W5        30.04R
FRANKFORT      MOSUNNY   62  56  83 N3        30.03R
GAYLORD        SUNNY     60  52  74 VRB5      30.01S
GRAYLING       SUNNY     59  57  94 W6        30.02S
HARBOR SPRINGS SUNNY     62  55  77 SW5       30.01R
HOUGHTON LAKE  SUNNY     62  52  69 NW8       30.02S
MANISTEE       MOSUNNY   63  55  77 NW7       30.03S
OSCODA         SUNNY     63  53  70 N5        29.98S
PELLSTON       SUNNY     64  53  67 N7        30.01R
ROGERS CITY    CLOUDY    56  55  96 NW3       30.01S
TRAVERSE CITY  MOSUNNY   63  54  72 NW5       30.01S
$$
MIZ007>008-015-301500-
EASTERN UPPER MICHIGAN

CITY           SKY/WX    TMP DP  RH WIND       PRES   REMARKS
KINROSS        PTSUNNY   54  54 100 NW5       30.01S
MACKINAC ISLAN CLOUDY    52  52 100 N3        30.01R
NEWBERRY       SUNNY     57  54  89 NW6       30.01S
S. S. MARIE    CLOUDY    55  50  83 VRB5      30.00S
MUNISING         N/A     58  49  72 N10       30.03S
$$
MIZ004>006-011>014-085-301500-
CENTRAL UPPER MICHIGAN

CITY           SKY/WX    TMP DP  RH WIND       PRES   REMARKS
MANISTIQUE     MOSUNNY   58  54  86 N6        30.02S
ESCANABA       MOSUNNY   59  50  72 N6        30.03S
MENOMINEE      SUNNY     59  52  77 N6        30.04S
$$
MIZ001>003-009>011-084-301500-
WESTERN UPPER MICHIGAN

CITY           SKY/WX    TMP DP  RH WIND       PRES   REMARKS
IRON MOUNTAIN  SUNNY     61  50  67 NW3       30.05S
HOUGHTON       SUNNY     58  50  75 W12       30.03F
COPPER HARBOR    N/A     61  54  77 N13       30.01F
$$

ABBREVIATIONS USED IN REMARKS
   TC - TEMPERATURE IN CELSIUS
  WCI - WIND CHILL INDEX
   HX - HEAT INDEX
  VSB - VISIBILITY



USA.gov is the U.S. government's official web portal to all federal, state and local government web resources and services.